sat.trackr.live / text

‹ back to catalog

STARLINK-3302

NORAD 50842 · 2022-001AR

PAYLOAD ACTIVE UNKNOWN

§ Identity

Operator
Country
US
Launch date
2022-01-06
Launch site
AFETR
Launch vehicle
Mass (kg)
RCS (m²)

Purposes: comms

External: N2YO · Heavens-Above · Gunter

§ Orbital elements

Epoch: 2026-05-24T20:27:04.021632Z

Period
95.44 min
Inclination
53.2132°
Eccentricity
0.0001040
Mean motion
15.08835568 rev/d
Perigee alt
539.0 km
Apogee alt
540.5 km
Semi-major
6,917.9 km
B*
1.7514e-5
RAAN
197.2147°
Arg perigee
81.0620°
Mean anomaly
279.0490°
Rev number
24,175

§ Raw data

STARLINK-33021 50842U 22001AR  26144.85212988 -.00000009  00000+0  17514-4 0  99952 50842  53.2132 197.2147 0001040  81.0620 279.0490 15.08835568241759

JSON: /api/v1/satellites/50842 · /tle

For live sub-satellite position, see the globe view (requires WebGL).

§ Visibility from observer

Set your observer location to see the next 7 days of passes ≥ 10°. The values pass through the URL so the page stays shareable.

No JS? Fill the form by hand. The geolocation button needs JavaScript.